Simultaneous Nadir Overpasses (SNOs) Predictions

Prediction of SNOs between FY3D and LANDSAT-8 Satellite Orbit:

Table of predicted SNOs for the next 14.0 days since TLE Epoch: 5/31/2019
Index Date (FY3D) Time (FY3D) Lat,Lon (FY3D) SZA (FY3D ) Date (LANDSAT-8) Time (LANDSAT-8) Lat,Lon (LANDSAT-8) SZA (LANDSAT-8 ) Distance(km) Time Diff (sec)
1 06/01/2019 14:47:15 70.49, -44.93 48.34 06/01/2019 14:47:42 70.49, -44.99 48.34 2.46 27
2 06/01/2019 15:37:57 -70.43, 122.49 131.73 06/01/2019 15:37:11 -70.44, 122.56 131.72 2.88 46
3 06/04/2019 07:03:43 70.53, 70.89 48.05 06/04/2019 07:04:12 70.51, 70.92 48.02 2.71 29
4 06/04/2019 07:54:24 -70.41,-121.60 132.08 06/04/2019 07:53:42 -70.40,-121.61 132.09 1.05 42
5 06/06/2019 23:20:10 70.52,-173.21 47.75 06/06/2019 23:20:42 70.53,-173.18 47.75 1.22 32
6 06/07/2019 00:10:50 -70.40, -5.69 132.39 06/07/2019 00:10:11 -70.42, -5.70 132.36 2.92 39
7 06/09/2019 15:36:36 70.51, -57.31 47.50 06/09/2019 15:37:11 70.54, -57.28 47.52 3.24 35
8 06/09/2019 16:27:18 -70.43, 110.13 132.59 06/09/2019 16:26:41 -70.44, 110.20 132.58 2.77 37
9 06/12/2019 07:53:03 70.51, 58.58 47.30 06/12/2019 07:53:42 70.50, 58.54 47.29 2.02 39
10 06/12/2019 08:43:45 -70.42,-133.96 132.80 06/12/2019 08:43:12 -70.40,-133.98 132.82 2.62 33




NCC Satellite Simultaneous Nadir Overpasses (SNOs) Prediction Service
